Mate Colak

Olheiro-Chefe - Zadar
5 Dez 2027
Domingo
Processo

Personalidade

Adaptabilidade (1) Ambição (15) Controvérsia (5) Lealdade (2) Pressão (7) Profissionalismo (1) Espírito Esportivo (19) Temperamento (17)

Perfil

Estilo de Treinamento Democrático
Licença Continental A
Determinação 3
Gestão de Pessoas 7
Motivação 7
Disciplina 2
Satisfação no Trabalho
100%
Fadiga
0%
Função Olheiro-Chefe
Salário 52.6K p/s
Contrato 14.03.2030

Desempenho

Comportamento Bom
Eficácia do Treinamento
30%
Desenvolvimento do Jogador
50%
Prevenção de Lesões
15%
Implementação Tática
10%

Eventos Recentes

Participou de uma reunião de recrutamento agora
Avaliou um jogador agora
Avaliou um jogador agora
Avaliou um jogador agora
Avaliou um jogador 7d atrás
Participou de uma reunião de recrutamento 7d atrás
Avaliou um jogador 7d atrás
Avaliou um jogador 7d atrás

Monitorando agora

194
Jogador Clube Status Habilidade Confiança Observado Última observação Último voto
Jonathan Cañete Portuguesa Ativo 110 / 125 40% 5 04.12.2027 -
Emmanuel Jonas El-Kanemi Warriors Ativo 94 / 101 40% 4 04.12.2027 -
Chinedu Onyinjekwu Bayelsa United Ativo 87 / 90 40% 2 04.12.2027 -
Joseph Atule Barau Ativo 84 / 75 40% 3 03.12.2027 -
Adama Goïta Remo Stars Ativo 92 / 85 40% 2 03.12.2027 -
Abubakar Bonni Enyimba Ativo 92 / 88 40% 1 03.12.2027 -
Chukwuemeka Obioma Abia Warriors Ativo 88 / 95 40% 4 02.12.2027 -
Richard Figueroa Deportivo Lara Ativo 101 / 121 40% 2 02.12.2027 -
Junior Paredes Trujillanos Ativo 111 / 120 40% 1 02.12.2027 -
Umar Ada Nasarawa United Ativo 89 / 115 40% 3 01.12.2027 -
César Magallan Estudiantes de Merida Ativo 118 / 119 40% 1 01.12.2027 -
Auwalu Ali Malam Kano Pillars Ativo 97 / 78 40% 1 01.12.2027 -
Samuel Anakwe Remo Stars Ativo 91 / 100 40% 5 30.11.2027 -
Santiago Sala Güemes Ativo 120 / 91 40% 3 30.11.2027 -
Maren Kefas Plateau United Ativo 91 / 103 40% 5 27.11.2027 -
Matías Sosa Arsenal Ativo 121 / 98 40% 5 27.11.2027 -
Alexander Díaz Deportivo Riestra Ativo 121 / 133 40% 2 27.11.2027 -
Erik Bodencer Central Norte Ativo 121 / 115 40% 2 25.11.2027 -
Carlos Gugenheim Almirante Brown Ativo 110 / 135 40% 3 25.11.2027 -
Okardi Inikurogha Bayelsa United Ativo 85 / 111 40% 3 25.11.2027 -
Antony Alonso Deportivo Riestra Ativo 126 / 109 40% 2 22.11.2027 -
Luciano Inverso Rentistas Ativo 124 / 121 40% 2 21.11.2027 -
José Barreto Quilmes Ativo 105 / 107 40% 2 21.11.2027 -
Richard Celis Zamora Ativo 111 / 110 40% 2 20.11.2027 -
Thiago Calone All Boys Ativo 111 / 110 40% 2 20.11.2027 -
Alan Bonansea Colón Ativo 110 / 101 40% 2 20.11.2027 -
Lucas Ríos Atlanta Ativo 120 / 126 40% 6 19.11.2027 -
Gianluca Pugliese Güemes Ativo 117 / 124 40% 4 18.11.2027 -
Shuaibu Ibrahim Wikki Tourists Ativo 89 / 102 40% 2 17.11.2027 -
Ismail Sarki Niger Tornadoes Ativo 100 / 79 40% 3 17.11.2027 -
Franco Fagúndez Estudiantes Ativo 112 / 114 40% 4 07.11.2027 -
Luca Franco Arsenal Ativo 99 / 96 40% 1 07.11.2027 -
Lius Dadong Kano Pillars Ativo 97 / 100 40% 2 05.11.2027 -
Chidi Akuneto Bendel Insurance Ativo 82 / 78 40% 3 02.11.2027 -
Nicolás Contín Gimnasia y Tiro Ativo 119 / 122 40% 2 01.11.2027 -
Chukwudi Okoro Nasarawa United Ativo 84 / 100 40% 1 01.11.2027 -
Máximo Alonso Central Espanol Ativo 120 / 130 40% 1 01.11.2027 -
Sunday Megwo Abia Warriors Ativo 94 / 99 40% 3 30.10.2027 -
Samson Obi Katsina United Ativo 89 / 104 40% 2 30.10.2027 -
Abubakar Garba Nasarawa United Ativo 90 / 110 40% 3 29.10.2027 -
Adeshina Gata Kwara United Ativo 94 / 75 40% 2 29.10.2027 -
Francisco Bonfiglio Boston River Ativo 121 / 115 40% 3 28.10.2027 -
Santiago Apa All Boys Ativo 114 / 118 40% 2 27.10.2027 -
James Emo Rangers International Ativo 82 / 110 40% 1 25.10.2027 -
Marco Miori Alvarado Ativo 118 / 126 40% 1 25.10.2027 -
Ezekiel Edidiong Enyimba Ativo 93 / 100 40% 1 24.10.2027 -
Matías Samaniego Talleres Ativo 95 / 108 40% 1 20.10.2027 -
Alejandro Melo Temperley Ativo 116 / 124 40% 2 19.10.2027 -
Igbunu Evwierhurhoma Warri Wolves Ativo 100 / 107 40% 2 19.10.2027 -
Tosin Olawale El-Kanemi Warriors Ativo 92 / 78 40% 1 17.10.2027 -
Javier Martínez Almirante Brown Ativo 109 / 92 40% 1 17.10.2027 -
Tomás Attis Patronato Ativo 103 / 109 40% 1 15.10.2027 -
Luca Martínez Dupuy Godoy Cruz Ativo 109 / 121 40% 2 11.10.2027 -
Gafar Saka Plateau United Ativo 79 / 78 40% 1 06.10.2027 -
Lisandro Cabrera Maipú Ativo 122 / 98 40% 1 06.10.2027 -
Nahuel Soria Oriental Ativo 114 / 121 40% 1 04.10.2027 -
Augustine Nwaorisa Enyimba Ativo 82 / 93 40% 1 17.09.2027 -
Juan Mendoza Güemes Ativo 94 / 92 40% 1 17.09.2027 -
Ronaldo Peña Deportivo Lara Ativo 101 / 95 40% 1 14.09.2027 -
Saliou Guindo Real Bamako Ativo 98 / 108 40% 1 13.09.2027 -
Agustín Gallo Tristán Suárez Ativo 122 / 93 40% 1 13.09.2027 -
Gonzalo Flores Almirante Brown Ativo 108 / 132 40% 1 09.09.2027 -
Juan Rocca Gimnasia y Tiro Ativo 100 / 127 40% 1 09.09.2027 -
Diego Sánchez Progreso Ativo 103 / 103 40% 1 09.09.2027 -
Tiziano Dornell Almagro Ativo 128 / 102 40% 1 08.09.2027 -
Moussakoye Diallo Stade Malien Ativo 102 / 99 40% 2 06.09.2027 -
Wasiu Jimoh Inter Allies Ativo 95 / 72 40% 1 30.08.2027 -
Thomas Agyepong Great Olympics Ativo 99 / 103 40% 1 30.08.2027 -
Gabriel Cordova Atletico Venezuela Ativo 107 / 87 40% 1 16.08.2027 -
Siaka Diaby Stade Malien Ativo 94 / 118 40% 1 16.08.2027 -
Hamza Issah Hearts of Oak Ativo 88 / 111 40% 3 09.08.2027 -
Dani Ángel Peterborough United Ativo 91 / 107 40% 1 09.08.2027 -
Manuel Pagano Giresunspor Ativo 92 / 78 40% 1 09.08.2027 -
Aaron Drinan Swindon Town Ativo 103 / 115 40% 3 08.08.2027 -
Jevan Beattie Harrogate Town Ativo 92 / 86 40% 1 08.08.2027 -
Samson Olasupo Remo Stars Ativo 85 / 73 40% 1 07.08.2027 -
Kimarni Smith Newport County Ativo 103 / 86 40% 1 07.08.2027 -
Robert Murić Floriana Ativo 116 / 101 40% 7 03.08.2027 -
Ignacio Yepez Cerrito Ativo 105 / 90 40% 1 03.08.2027 -
David Okereke Cremonese Ativo 126 / 125 40% 1 05.07.2027 -
Beryly Lubala Barrow AFC Ativo 105 / 90 40% 1 05.07.2027 -
Kelly Saravanan Salford City Ativo 104 / 110 40% 3 28.06.2027 -
Bernat Guiu Virtus Entella Ativo 115 / 128 40% 1 28.06.2027 -
Luca Moro Padova Ativo 127 / 119 40% 1 28.06.2027 -
Bradley Fink Wycombe Wanderers Ativo 117 / 122 40% 2 21.06.2027 -
Oleksii Hutsuliak Polissia Ativo 133 / 117 40% 2 21.06.2027 -
Lovre Šimić Sesvete Relatório pronto 73 / 65 69% 1 21.06.2027 -
Calum Kavanagh Oldham Athletic Ativo 95 / 99 40% 1 21.06.2027 -
Marco Tumminello Benevento Ativo 121 / 115 40% 1 08.06.2027 -
Harry Cornick AFC Wimbledon Ativo 99 / 105 40% 1 08.06.2027 -
Ryan Graydon Salford City Ativo 96 / 112 40% 1 08.06.2027 -
Patrick Addo Great Olympics Ativo 99 / 122 40% 2 31.12.2026 -
Samuel Tetteh Ashanti Gold Ativo 101 / 78 40% 3 31.12.2026 -
Zsombor Gruber Bekescsaba Ativo 109 / 106 40% 1 30.12.2026 -
Stefan Vukić Rudes Ativo 112 / 105 40% 5 29.12.2026 -
Fabrizio Cavegn Bristol Rovers Ativo 115 / 105 40% 1 29.12.2026 -
Krisztofer Horváth Ujpest Ativo 118 / 124 40% 1 29.12.2026 -
Patrick Schmidt Tarxien Rainbows Ativo 103 / 89 40% 1 28.12.2026 -
Slobodan Tedić Akron Ativo 108 / 109 40% 1 27.12.2026 -
Aaron Collins Milton Keynes Dons Ativo 112 / 112 40% 1 27.12.2026 -
Blessing Eleke Aswan Ativo 101 / 115 40% 1 27.12.2026 -
Armstrong Oko-Flex Levski Ativo 115 / 121 40% 2 26.12.2026 -
Malik Mothersille Stockport County Ativo 109 / 105 40% 1 25.12.2026 -
Ioannis Pittas CSKA Sofia Ativo 128 / 113 40% 1 25.12.2026 -
Bernard Sulemana Wa All Stars Ativo 100 / 111 40% 2 23.12.2026 -
Iuri Tavares NK Varazdin Ativo 124 / 109 40% 3 21.12.2026 -
Vyacheslav Grulev Nizhniy Novgorod Ativo 114 / 116 40% 1 21.12.2026 -
Fran Brodić NK Varazdin Ativo 105 / 113 40% 2 20.12.2026 -
Anthony Scully Shrewsbury Town Ativo 97 / 84 40% 1 20.12.2026 -
Franklin Sasere Birkirkara Ativo 99 / 94 40% 1 18.12.2026 -
Matej Trusa DAC Dunajska Streda Ativo 118 / 120 40% 1 18.12.2026 -
Jonathan Okoronkwo Torpedo Moscow Ativo 95 / 90 40% 2 15.12.2026 -
Róbert Polievka MTK Budapest Ativo 113 / 99 40% 4 15.12.2026 -
Iwan Morgan Grimsby Town Ativo 114 / 106 40% 1 15.12.2026 -
Dario Vizinger NK Maribor Ativo 116 / 106 40% 8 14.12.2026 -
Martin Sekulić Ural Ativo 108 / 97 40% 5 14.12.2026 -
Joel Fameyeh Puskas Akademia Ativo 105 / 112 40% 1 14.12.2026 -
Sunusi Ibrahim Cotonsport Garoua Ativo 100 / 120 40% 5 12.12.2026 -
Ammar Ramadan DAC Dunajska Streda Ativo 133 / 114 40% 4 12.12.2026 -
Rahid Garayev Khazar Ativo 118 / 124 40% 2 11.12.2026 -
Yeangel Montero Naxxar Lions Ativo 105 / 108 40% 5 11.12.2026 -
Seidu Basit Ashanti Gold Ativo 96 / 81 40% 1 10.12.2026 -
Jurica Poldrugač Rudes Ativo 104 / 111 40% 1 10.12.2026 -
Franko Kovačević Honved Ativo 122 / 103 40% 4 09.12.2026 -
Sebastian Musiolik Sibenik Ativo 101 / 113 40% 3 08.12.2026 -
Gamid Agalarov Dinamo Makhachkala Ativo 118 / 108 40% 1 07.12.2026 -
Ádin Molnár MTK Budapest Ativo 105 / 107 40% 1 06.12.2026 -
Danila Shilov Dinamo Stavropol Ativo 97 / 91 40% 1 06.12.2026 -
Samuel Kalu Botev Plovdiv Ativo 120 / 127 40% 2 04.12.2026 -
Dmitry Tsypchenko Torpedo Moscow Ativo 112 / 97 40% 1 04.12.2026 -
Marko Dabro Slaven Belupo Ativo 103 / 103 40% 3 03.12.2026 -
Karlo Špeljak Sibenik Ativo 99 / 90 40% 1 03.12.2026 -
Josip Špoljarić HNK Vukovar 1991 Ativo 96 / 114 40% 2 02.12.2026 -
Stephen Amankona Aduana Stars Ativo 101 / 68 40% 1 02.12.2026 -
Ante Aralica Lokomotiv Sofia Ativo 107 / 120 40% 11 01.12.2026 -
Vinko Rozić Istra 1961 Ativo 119 / 126 40% 3 01.12.2026 -
Karim El Berkaoui ES Mostaganem Ativo 125 / 97 40% 1 01.12.2026 -
Ivan Delić Dugopolje Ativo 98 / 81 40% 3 26.11.2026 -
Denzel Jubitana Neftchi Ativo 113 / 134 40% 1 26.11.2026 -
Filip Stojanovic NK Domzale Ativo 130 / 128 40% 4 24.11.2026 -
Dušan Vuković Lokomotiva Zagreb Ativo 103 / 116 40% 3 23.11.2026 -
Philip Elayo Azango Spartak Trnava Ativo 116 / 121 40% 2 22.11.2026 -
Oto John Arab Contractors Ativo 92 / 105 40% 1 22.11.2026 -
Lukáš Juliš MSK Zilina Ativo 116 / 119 40% 1 21.11.2026 -
John Okoye Ebuka Ittihad Ativo 125 / 119 40% 4 20.11.2026 -
Daniel Ratiu Pandurii Ativo 100 / 113 40% 2 19.11.2026 -
Isaac Matondo Koper Ativo 111 / 118 40% 1 19.11.2026 -
Fortune Bassey PWD Bamenda Ativo 90 / 84 40% 2 18.11.2026 -
Stipe Jurić NK Varazdin Ativo 110 / 108 40% 3 16.11.2026 -
David Žabec Cibalia Ativo 102 / 100 40% 2 12.11.2026 -
Manu Nieto Andorra Ativo 113 / 108 40% 1 12.11.2026 -
Niko Domjanić NK Krka Ativo 90 / 89 40% 3 11.11.2026 -
Hakeeb Adelakun Doncaster Rovers Ativo 103 / 98 40% 1 11.11.2026 -
Mamadou Thiam FCSB Ativo 111 / 102 40% 1 10.11.2026 -
Patrik Mijić HNK Gorica Ativo 117 / 104 40% 3 08.11.2026 -
Andrei Dragusin Astra Ativo 124 / 137 40% 2 07.11.2026 -
Elias Hoff Melkersen Stromsgodset Ativo 123 / 138 40% 1 07.11.2026 -
Vegard Erlien Tromso Ativo 121 / 136 40% 1 07.11.2026 -
Octavian Popescu FCSB Ativo 112 / 126 40% 1 05.11.2026 -
Nardin Mulahusejnović Vojvodina Ativo 117 / 107 40% 1 04.11.2026 -
Kenan Dervišagić Floriana Ativo 106 / 111 40% 1 01.11.2026 -
Matko Babić Voluntari Ativo 105 / 103 40% 2 31.10.2026 -
Matěj Koubek MFK Ruzomberok Ativo 105 / 94 40% 1 28.10.2026 -
Papa Ndiaga Yade Oleksandriya Ativo 110 / 104 40% 1 27.10.2026 -
Jere Vrcić Birkirkara Ativo 81 / 83 40% 1 22.10.2026 -
Abdoulie Sanyang Hajduk Split Ativo 107 / 112 40% 2 21.10.2026 -
Miloš Jovičić Zabbar St. Patrick Ativo 82 / 100 40% 1 20.10.2026 -
Matej Vuk NK Varazdin Ativo 107 / 97 40% 2 19.10.2026 -
Oliver Heiðarsson Lokomotiva Zagreb Ativo 102 / 93 40% 2 18.10.2026 -
Marko Kolar Ruch Ativo 102 / 106 40% 1 18.10.2026 -
Petter Nosa Dahl Rapid Wien Ativo 122 / 121 40% 2 14.10.2026 -
Đorđe Jovanović Radnik Surdulica Ativo 109 / 103 40% 1 14.10.2026 -
Bruno Zdunić Dugopolje Ativo 96 / 104 40% 1 14.10.2026 -
Marcus Browne AFC Wimbledon Ativo 104 / 102 40% 2 12.10.2026 -
Sam Nombe Milton Keynes Dons Ativo 108 / 119 40% 2 12.10.2026 -
Bobur Abdiholiqov Nasaf Ativo 119 / 104 40% 1 11.10.2026 -
Patrik Iľko MSK Zilina Ativo 105 / 104 40% 1 09.10.2026 -
Daniel Karlsbakk Sarpsborg 08 Ativo 122 / 132 40% 1 05.10.2026 -
Halid Alghoul Keflavik Ativo 82 / 87 40% 1 04.10.2026 -
Stipe Perica Neftchi Ativo 109 / 86 40% 1 29.09.2026 -
Alassana Jatta Notts County Ativo 112 / 115 40% 1 27.09.2026 -
Mihael Mlinarić Zaglebie Ativo 113 / 117 40% 1 25.09.2026 -
Jakub Kadák Dukla Prague Ativo 120 / 120 40% 2 24.09.2026 -
Örvar Eggertsson Stjarnan Ativo 110 / 122 40% 1 21.09.2026 -
Friday Ubong TSC Ativo 99 / 112 40% 1 14.09.2026 -
German Onugkha Rodina Ativo 114 / 106 40% 2 13.09.2026 -
Jurica Jurčec Segesta Ativo 98 / 86 40% 1 13.09.2026 -
Marko Divković Brondby Ativo 108 / 126 40% 2 11.09.2026 -
Ivan Božić Cibalia Ativo 96 / 88 40% 1 08.09.2026 -
Lee Bonis Chesterfield Ativo 96 / 108 40% 1 06.09.2026 -
Igor Lepinjica Slaven Belupo Ativo 95 / 112 40% 1 06.09.2026 -
Diego Valencia Universidad Catolica Ativo 110 / 86 40% 1 05.09.2026 -
Louis Appéré Cambridge United Ativo 103 / 86 40% 1 05.09.2026 -
Armandas Kučys NK Celje Ativo 110 / 100 40% 1 01.09.2026 -